[[{"header":{"parameterUnit":"m.s-1","parameterCategory":1,"la1":30.2991,"la2":30.254,"lo1":-89.0895,"lo2":-89.0444,"dy":0.0017,"dx":0.0017,"nx":28,"ny":28,"refTime":"2024-07-16T21:00:00:Z","depth":0,"parameterNumber":2,"parameterNumberName":"U-component_of_WINDS"},"data":[0,0,0,0,0,0,0,0,0,0,0,0,0,0,0,0,0,0,0,0,0,0,0,0,0,0,0,0,0,0,0,0,0,0,0,0,0,0,0,0,0,0,0,0,0,0,0,0,0,0,0,0,0,0,0,0,0,0,3.6288,3.6288,0,3.6331,3.6331,3.6332,3.6272,3.627,3.6268,3.6266,3.6309,3.6312,3.6315,0,0,0,0,0,0,0,0,0,0,0,0,0,3.6152,3.6155,3.6288,3.6289,3.6289,3.6331,3.6331,3.6332,3.6273,3.627,3.6268,3.6265,3.6308,3.6312,3.6316,0,0,0,0,0,0,0,0,0,0,0,0,0,3.6205,3.6156,3.6288,3.6265,3.6263,3.6331,3.6331,3.6332,3.6273,3.627,3.6267,3.6264,3.6307,3.6311,3.6316,3.6408,0,0,3.633,3.6332,0,0,0,0,0,0,0,0,3.6202,3.621,3.6268,3.6266,3.6265,3.6293,3.6299,3.6357,3.6274,3.6269,3.6266,3.6262,3.6306,3.6311,3.6326,3.641,3.6412,3.6331,3.6334,3.6336,3.6337,0,0,0,0,0,0,0,3.6198,3.6208,3.6305,3.6268,3.6267,3.6251,3.6255,3.631,3.6305,3.627,3.6265,3.6271,3.6305,3.6321,3.6326,3.6413,3.6331,3.6335,3.6338,3.6339,3.657,3.6573,0,0,0,0,0,0,3.6198,3.6205,3.6303,3.6306,3.6225,3.6256,3.626,3.6287,3.6304,3.6304,3.6274,3.6268,3.6315,3.6321,3.6328,3.6433,3.6336,3.634,3.6343,3.6567,3.6571,3.6574,0,0,0,0,0,0,3.6195,3.6207,3.6302,3.6254,3.6265,3.6262,3.6292,3.629,3.6306,3.6308,3.6306,3.6292,3.6313,3.6321,3.6387,3.6433,3.6342,3.6346,3.6563,3.6568,3.6572,3.6646,0,0,0,0,0,0,3.6191,3.6207,3.6242,3.6256,3.6268,3.6362,3.6295,3.6293,3.6314,3.6307,3.6324,3.6324,3.6311,3.6381,3.6392,3.6438,3.635,3.6558,3.6565,3.6571,3.6639,3.6653,3.6664,0,0,0,0,0,3.6187,3.6262,3.6245,3.6257,3.6313,3.6365,3.6372,3.6356,3.6318,3.6353,3.6354,3.6323,3.6427,3.6388,3.64,3.6449,3.6555,3.6563,3.657,3.6634,3.665,3.6664,0,0,0,0,0,0,3.6255,3.6264,3.6244,3.6326,3.6345,3.6355,3.6399,3.6374,3.6404,3.6397,3.6375,3.6379,3.645,3.6456,3.6413,3.6536,3.6485,3.6495,3.6529,3.6545,3.6557,3.6552,3.6354,0,0,0,0,0,3.628,3.6322,3.6327,3.6399,3.6409,3.6403,3.6425,3.641,3.6429,3.6437,3.6442,3.6461,3.6497,3.6522,3.6556,3.6641,3.6642,3.668,3.6692,3.6703,3.6711,3.6752,3.6768,3.6599,3.6599,3.6599,0,0,3.6331,3.6341,3.6369,3.6413,3.6426,3.6468,3.641,3.6458,3.6488,3.6444,3.6506,3.6511,3.653,3.6605,3.6638,3.6613,3.6758,3.6712,3.672,3.6723,3.6761,3.6777,3.6791,3.6604,3.6603,3.6602,0,0,3.6445,3.6458,3.6517,3.6531,3.6551,3.6546,3.656,3.6573,3.6574,3.6636,3.6602,3.6638,3.6703,3.6716,3.6732,3.6848,3.682,3.686,3.6924,3.6965,3.6978,3.699,3.7027,3.7041,3.6869,3.6869,3.6869,0,3.6505,3.6568,3.6551,3.66,3.6619,3.658,3.6638,3.6653,3.6683,3.6696,3.6668,3.6745,3.6756,3.6831,3.6859,3.6875,3.6888,3.6857,3.6978,3.6989,3.7,3.7035,3.705,3.6874,3.6873,3.6873,3.6872,0,3.664,3.6684,3.6729,3.6758,3.6782,3.6836,3.6825,3.6852,3.6835,3.6832,3.6894,3.6905,3.6939,3.6957,3.6942,3.7029,3.7012,3.6981,3.6928,3.702,3.7053,3.7067,3.688,3.6879,3.6877,3.6876,0,0,3.6797,3.6814,3.683,3.6841,3.6859,3.6892,3.6944,3.6976,3.6997,3.702,3.706,3.7114,3.7084,3.7102,3.7088,3.7124,3.7211,3.7088,3.7088,3.7107,3.7303,3.7323,3.7339,3.7193,3.7196,3.7198,3.73,0,3.6907,3.6995,3.6979,3.7064,3.7102,3.7065,3.7109,3.7124,3.7123,3.7154,3.7153,3.719,3.715,3.716,3.7194,3.7193,3.7249,3.7186,3.7227,3.7229,3.722,3.7357,3.7379,3.7475,3.7313,3.7315,3.7317,0,3.7048,3.7073,3.7161,3.7169,3.7185,3.7225,3.7251,3.7283,3.7298,3.7294,3.7313,3.7292,3.734,3.7289,3.7354,3.7312,3.7328,3.733,3.7333,3.7333,3.7276,3.7357,3.7505,3.7518,3.7337,3.7336,3.7334,0,3.7148,3.7204,3.7263,3.7274,3.7287,3.7315,3.7321,3.7334,3.7353,3.7377,3.7388,3.7418,3.7433,3.7456,3.7442,3.7407,3.7508,3.7457,3.7503,3.7504,3.7524,3.7522,3.7673,3.7541,3.7541,3.7541,3.754,0,3.727,3.7324,3.7307,3.7343,3.7402,3.7383,3.7441,3.7444,3.7455,3.7489,3.7461,3.7493,3.7475,3.7506,3.7496,3.7549,3.7557,3.7553,3.7549,3.7554,3.7554,3.7561,3.7553,3.7545,3.7544,3.7543,3.7542,0,3.739,3.7382,3.7443,3.7449,3.7452,3.7495,3.7499,3.7532,3.7528,3.7571,3.7581,3.7574,3.7609,3.7598,3.7636,3.7629,3.7695,3.7685,3.7689,3.7685,3.7731,3.7725,3.7889,3.7907,3.7768,3.7769,3.777,0,3.7467,3.7507,3.7518,3.7538,3.7546,3.7581,3.7599,3.7583,3.7603,3.7622,3.7652,3.7684,3.7708,3.7764,3.7762,3.779,3.7778,3.7833,3.7782,3.7784,3.7773,3.777,3.7772,3.7842,3.7844,3.7845,3.7846,0,3.7602,3.7595,3.7624,3.765,3.7673,3.7693,3.7711,3.7729,3.7713,3.7738,3.7772,3.7791,3.7828,3.7859,3.7884,3.7889,3.7864,3.7863,3.7874,3.7877,3.7876,3.7873,3.7713,3.7859,3.7857,3.7857,3.7856,3.7855,3.77,3.7732,3.7744,3.7775,3.7786,3.7803,3.7832,3.7831,3.7859,3.7888,3.7877,3.7915,3.7927,3.7958,3.7967,3.7996,3.7974,3.7992,3.7996,3.7999,3.8003,3.7875,3.8001,3.8,3.8,3.8,3.8,0,3.783,3.7835,3.7864,3.7888,3.7912,3.7888,3.7905,3.7926,3.796,3.7974,3.7998,3.8036,3.8065,3.8065,3.8092,3.8115,3.8104,3.8122,3.8118,3.8119,3.8023,3.8008,3.813,3.813,3.813,3.813,3.813,3.813,3.79,3.7952,3.7946,3.8002,3.8007,3.8044,3.8055,3.8069,3.8079,3.8122,3.8146,3.8146,3.8153,3.818,3.8205,3.8204,3.8214,3.8235,3.823,3.8139,3.8126,3.8114,3.8099,3.8239,3.8239,3.8323,3.8324,3.8324]},{"header":{"parameterUnit":"m.s-1","parameterCategory":1,"la1":30.2991,"la2":30.254,"lo1":-89.0895,"lo2":-89.0444,"dy":0.0017,"dx":0.0017,"nx":28,"ny":28,"refTime":"2024-07-16T21:00:00:Z","depth":0,"parameterNumber":3,"parameterNumberName":"V-component_of_WINDS"},"data":[0,0,0,0,0,0,0,0,0,0,0,0,0,0,0,0,0,0,0,0,0,0,0,0,0,0,0,0,0,0,0,0,0,0,0,0,0,0,0,0,0,0,0,0,0,0,0,0,0,0,0,0,0,0,0,0,0,0,3.9556,3.9557,0,3.9734,3.9736,3.9738,3.9742,3.974,3.9738,3.9736,3.9916,3.9923,3.993,0,0,0,0,0,0,0,0,0,0,0,0,0,3.9215,3.9221,3.9555,3.9558,3.956,3.9733,3.9736,3.9738,3.9743,3.974,3.9737,3.9735,3.9914,3.9922,3.993,0,0,0,0,0,0,0,0,0,0,0,0,0,3.9375,3.9223,3.9555,3.9583,3.9587,3.9733,3.9736,3.9739,3.9743,3.974,3.9737,3.9734,3.9911,3.9921,3.9931,4.0061,0,0,3.9963,3.9967,0,0,0,0,0,0,0,0,3.9366,3.9387,3.9577,3.9581,3.9586,3.9712,3.9682,3.9847,3.9744,3.9684,3.9736,3.9732,3.9851,3.9866,3.9907,4.0069,4.0077,3.9964,3.997,3.9974,3.9977,0,0,0,0,0,0,0,3.9355,3.938,3.9626,3.9579,3.9585,3.9585,3.9604,3.9713,3.9784,3.9689,3.969,3.9711,3.9853,3.9897,3.9911,4.0079,3.9963,3.9973,3.9979,3.9983,4.0354,4.0357,0,0,0,0,0,0,3.9339,3.9371,3.962,3.9631,3.9466,3.9594,3.9616,3.9675,3.9783,3.9796,3.9713,3.971,3.9881,3.9899,3.9917,4.0074,3.9974,3.9984,3.999,4.035,4.0354,4.0358,0,0,0,0,0,0,3.9331,3.9361,3.9613,3.9501,3.9533,3.9604,3.9671,3.9681,3.9724,3.9801,3.9813,3.9745,3.9879,3.9903,4.0024,4.008,3.9989,3.9998,4.0346,4.0351,4.0356,4.0389,0,0,0,0,0,0,3.9321,3.9358,3.9409,3.9502,3.9539,3.9719,3.9674,3.9686,3.9742,3.974,3.9834,3.9847,3.9878,4.0009,4.0035,4.0093,4.0006,4.0341,4.0348,4.0355,4.0383,4.0395,4.0405,0,0,0,0,0,3.9309,3.9411,3.9412,3.9442,3.9605,3.9722,3.9743,3.9778,3.9747,3.9798,3.9846,3.9844,4.007,4.0021,4.005,4.0112,4.0338,4.0346,4.0354,4.0378,4.0392,4.0404,0,0,0,0,0,0,3.9323,3.9424,3.9426,3.9561,3.9633,3.9722,3.9788,3.9792,3.9874,3.9868,3.9907,3.9928,4.0048,4.0092,4.0037,4.0241,4.02,4.0214,4.0208,4.0222,4.0233,4.022,4.0014,0,0,0,0,0,3.9342,3.9429,3.9513,3.9624,3.966,3.9718,3.977,3.979,3.9866,3.9896,3.9954,4.0027,4.0114,4.0171,4.0255,4.0389,4.0409,4.0446,4.0456,4.0465,4.0477,4.0549,4.0565,4.0386,4.0386,4.0385,0,0,3.9381,3.9447,3.9501,3.9628,3.9686,3.9775,3.9743,3.9839,3.9905,3.9911,4.0029,4.0073,4.0157,4.0285,4.0344,4.0325,4.0531,4.0476,4.0482,4.0489,4.0559,4.0576,4.0591,4.0391,4.039,4.0389,0,0,3.9499,3.9558,3.9657,3.9715,3.9803,3.984,3.9863,3.9952,3.9982,4.0101,4.0107,4.0185,4.0335,4.0393,4.0443,4.0579,4.0579,4.0606,4.0662,4.0732,4.0746,4.0758,4.0806,4.0822,4.0617,4.0617,4.0617,0,3.9537,3.9672,3.9706,3.9802,3.9857,3.9866,3.9965,4.0019,4.013,4.0167,4.0145,4.0332,4.0389,4.0529,4.0562,4.0602,4.0629,4.0595,4.0741,4.0754,4.0766,4.0812,4.083,4.062,4.062,4.0619,4.0619,0,3.9713,3.9806,3.9875,3.9981,4.0044,4.0141,4.0188,4.0247,4.0261,4.03,4.042,4.0488,4.0586,4.0621,4.0636,4.0763,4.0748,4.0733,4.0692,4.0786,4.0829,4.0846,4.0624,4.0623,4.0622,4.0621,0,0,3.9846,3.9969,3.9993,4.004,4.0137,4.0209,4.0304,4.04,4.0449,4.0524,4.0605,4.073,4.0716,4.0772,4.0793,4.0854,4.0955,4.0831,4.0833,4.0851,4.1097,4.1107,4.1127,4.0955,4.0959,4.0962,4.1089,0,3.9973,4.0144,4.0177,4.0325,4.041,4.0419,4.0502,4.0569,4.0607,4.0684,4.0726,4.0814,4.0789,4.0823,4.0883,4.093,4.1005,4.0921,4.1029,4.1032,4.1007,4.115,4.1162,4.1279,4.1107,4.111,4.1112,0,4.0144,4.0223,4.038,4.0463,4.05,4.0574,4.0663,4.0737,4.0812,4.0835,4.0896,4.091,4.1008,4.0962,4.1096,4.1038,4.1084,4.1113,4.1119,4.113,4.1077,4.1164,4.1318,4.1335,4.1139,4.1137,4.1135,0,4.0223,4.0369,4.0481,4.0522,4.0621,4.0673,4.0717,4.0789,4.0843,4.092,4.0956,4.1043,4.1091,4.1157,4.1193,4.1157,4.1324,4.1282,4.1345,4.1344,4.138,4.1377,4.1542,4.141,4.141,4.141,4.1409,0,4.0361,4.0457,4.0518,4.0587,4.0693,4.0728,4.0832,4.0875,4.0938,4.1014,4.1027,4.1098,4.1142,4.1218,4.1247,4.1352,4.1374,4.1394,4.1401,4.1393,4.139,4.1424,4.1416,4.1414,4.1413,4.1412,4.1412,0,4.0468,4.0513,4.0635,4.0719,4.0742,4.0817,4.0888,4.0954,4.0991,4.1087,4.1111,4.117,4.1261,4.1303,4.1416,4.1434,4.1554,4.1555,4.1529,4.1531,4.1591,4.1584,4.1783,4.181,4.1661,4.1662,4.1663,0,4.0553,4.0626,4.0717,4.0769,4.0814,4.0898,4.0953,4.099,4.1047,4.1137,4.1192,4.1283,4.1358,4.1501,4.1553,4.1638,4.1641,4.1705,4.1654,4.1643,4.1641,4.1636,4.1642,4.1714,4.1715,4.1717,4.1718,0,4.0698,4.0716,4.0796,4.0883,4.0948,4.1018,4.1087,4.1129,4.1176,4.1239,4.1332,4.139,4.1504,4.1593,4.1681,4.1725,4.1729,4.1733,4.1752,4.1745,4.1726,4.1735,4.1553,4.1728,4.1727,4.1726,4.1726,4.1725,4.0796,4.0861,4.0934,4.1022,4.1077,4.1141,4.1206,4.1251,4.1329,4.1425,4.1442,4.154,4.1611,4.173,4.1776,4.1852,4.1837,4.1865,4.1872,4.1878,4.1881,4.1714,4.1869,4.1868,4.1868,4.1868,4.1868,0,4.0941,4.0988,4.1068,4.1164,4.1232,4.123,4.1305,4.1362,4.1448,4.1514,4.1587,4.1692,4.1778,4.1836,4.1923,4.1973,4.1977,4.1994,4.1991,4.2,4.189,4.1864,4.199,4.199,4.199,4.199,4.1989,4.1989,4.1025,4.1133,4.1159,4.1294,4.1341,4.1437,4.148,4.1538,4.1591,4.1708,4.1779,4.1816,4.1879,4.197,4.2048,4.2062,4.2093,4.2111,4.2125,4.2021,4.2008,4.1996,4.1972,4.2118,4.2118,4.2229,4.223,4.2231]}]]